Weather in Balaklava

Russia / Republic of Crimea     44°30′05″N   33°36′00″E
temp.,
°C
wind,
m/s
gust,
m/s
humid.,
%
clouds,
%
prec.,
mm/h
press.,
hPa
HPBL,
m
1 march, mon
mon100:00+5n677599 0.3 1025853
03:00+5n3474100 0.4 1025636
06:00+4ne2284100 0.2 1025324
09:00+4nne1278100 0.3 1025406
12:00+6nnw1264100 0.1 1026593
15:00+6nw446898 0.1 1026591
18:00+6n666678 0.0 1027749
21:00+5ne466340 0.0 1029583
2 march, tue
tue200:00+4ne34650 0.0 1030307
03:00+4nne67709 0.1 1031394
06:00+3ne45720 0.0 1030354
09:00+3ne33670 0.0 1031264
12:00+5nnw33590 0.0 1031767
15:00+5nw55691 0.0 1030759
18:00+4nw456610 0.0 1028885
21:00+5w566720 0.0 1028866
3 march, wed
wed300:00+5w677568 0.0 1026653
03:00+6w8108054 0.0 1024810
06:00+8wnw9107995 0.1 1023911
09:00+6n9107995 0.1 1024874
12:00+6n91073100 0.1 10251131
15:00+7nnw776285 0.2 10261278
18:00+7n675838 0.0 10271075
21:00+6nne565719 0.0 1029624
4 march, thu
thu400:00+5ne22560 0.0 1029209
03:00+5ese11560 0.0 1029108
06:00+5ese11570 0.0 1028118
09:00+6se33640 0.0 1027343
12:00+7s55620 0.0 1026968
15:00+7sw45600 0.0 1024882
18:00+7ssw56650 0.0 1022978
21:00+6s78731 0.0 1021793
5 march, fri
fri500:00+6s68726 0.0 1021731
03:00+6s68753 0.0 1019647
06:00+6s68740 0.0 1018585
09:00+7s78752 0.0 1018613
12:00+8s78751 0.0 1017576
15:00+8s79746 0.0 1016594
18:00+8sse810823 0.0 1016509
21:00+8sse811833 0.0 1015511